Regional Weather Roundup
Issued by NWS

Home | Current Version | Previous Version | Graphics & Text | Print | Product List | Glossary On
Versions: 1 2 3 4 5 6 7 8 9 10 11 12 13 14 15 16 17 18 19 20 21 22 23 24 25 26 27 28 29 30 31 32 33 34 35 36 37 38 39 40 41 42 43 44 45 46 47 48 49 50
457
ASUS45 KBOU 250107
RWRCO

WEATHER ROUNDUP FOR COLORADO
NATIONAL WEATHER SERVICE DENVER/BOULDER CO
700 PM MDT TUE MAY 24 2016

NOTE: "FAIR" INDICATES FEW OR NO CLOUDS BELOW 12000 FEET WITH NO
SIGNIFICANT WEATHER AND/OR OBSTRUCTIONS TO VISIBILITY.

COZ001>005-013-030-031-250200-
...NORTHWEST COLORADO...

CITY           SKY/WX    TMP DP  RH WIND       PRES   REMARKS
CRAIG          FAIR      64  22  20 SW17G23   29.85R
HAYDEN         FAIR      61  21  21 SW13      29.87R
MEEKER         FAIR      66  19  16 SW14      29.87R
MOUNT WERNER   NOT AVBL
STEAMBOAT SPGS FAIR      66  22  18 SW10G21   29.88R
WALDEN         FAIR      59  18  20 SW20G26   29.95R
$$

COZ006>008-011-250200-
...WEST CENTRAL VALLEYS...

CITY           SKY/WX    TMP DP  RH WIND       PRES   REMARKS
GRAND JUNCTION FAIR      71  18  13 W13       29.82R
MONTROSE       FAIR      72  12  10 SW17G32   29.89R
EAGLE          FAIR      68  19  15 SW10      29.90S
RIFLE          FAIR      71  14  11 W17G32    29.83R
DELTA          FAIR      76   9   7 SW20G29   29.85R
NUCLA          FAIR      68  12  11 SW20G31   29.95R
$$

COZ017>023-064>068-250200-
...SOUTHWEST COLORADO...

CITY           SKY/WX    TMP DP  RH WIND       PRES   REMARKS
DURANGO        FAIR      68  11  11 SW15      29.98S
CORTEZ         FAIR      70  15  12 SW18G30   29.94S
PAGOSA SPRINGS FAIR      64   7  10 SW15G24   30.05S
TELLURIDE      FAIR      57  10  15 CALM      30.10R
WOLF CREEK PAS PTSUNNY   37  12  35 SW30G46   30.27R
$$

COZ009-010-012-014-032>034-037-058>063-250200-
...CENTRAL COLORADO...

CITY           SKY/WX    TMP DP  RH WIND       PRES   REMARKS
ASPEN          FAIR      57  25  29 VRB5      29.98S
BUENA VISTA    FAIR      64   7  11 SW5G22    29.97S
COPPER MTN     NOT AVBL
BERTHOUD PASS  PTSUNNY   36  28  75 W35G41    30.21R
COTTONWOOD PAS FAIR      55  -4   8 SW18G35   30.09R
GUNNISON       FAIR      63  14  15 S17G26    30.01R
KREMMLING      FAIR      64  10  12 W23G30    29.93R
LEADVILLE      FAIR      51  12  21 W12       30.08R
MONARCH PASS   FAIR      43  12  28 SW37G51   30.30R
SALIDA         FAIR      68  10  10 S12       30.03S
SUNLIGHT       PTSUNNY   45  21  39 SW3       30.14R
WILKERSON PASS PTSUNNY   46  10  23 SW13G24   30.17S
$$

COZ069>075-250200-
...SAN LUIS VALLEY/SANGRE DE CRISTO MOUNTAINS...

CITY           SKY/WX    TMP DP  RH WIND       PRES   REMARKS
ALAMOSA        FAIR      66  20  17 SW20G26   29.99F
LA VETA PASS   FAIR      54  21  28 S9G24     30.14S
SAGUACHE       FAIR      63  14  15 W18G31    30.02R
$$

COZ035-036-038>040-250200-
...NORTHERN COLORADO FRONT RANGE...

CITY           SKY/WX    TMP DP  RH WIND       PRES   REMARKS
DENVER INTL AP PTSUNNY   64  53  67 E14       29.83R
DMNS CITY PARK   N/A     67  46  47 N10G17    29.83S
AURORA         PTSUNNY   63  52  67 NE7       29.83F
FRONT RANGE AP PTSUNNY   61  52  72 NE9       29.83S
ERIE MUNI ARPT PTSUNNY   65  51  59 N7        29.82S
BOULDER MUN AP FAIR      64  46  52 NE7       29.83R
CENTENNIAL     PTSUNNY   65  45  48 NE9       29.84R
BROOMFIELD     PTSUNNY   64  50  59 NW8       29.86S
FORT COLLINS   FAIR      39 N/A N/A N8        29.85R
LONGMONT       PTSUNNY   69  47  46 N10       29.83F
$$

COZ041-046-047-076>085-087-088-250200-
...PIKES PEAK/PALMER DIVIDE AND SOUTHERN FOOTHILLS...

CITY           SKY/WX    TMP DP  RH WIND       PRES   REMARKS
COLO. SPRINGS  FAIR      72  26  18 SW17      29.86F
A. F. ACADEMY  FAIR      70  36  28 S8        29.87F
SCHRIEVER AFB  NOT AVBL
ELLICOTT       FAIR     N/A N/A N/A S16G26    29.85F
FALCON         FAIR      67  29  24 S14       29.92F
FORT CARSON    FAIR      74  22  14 SW13G23   29.83S
LIMON          FAIR      71  38  29 S15G26    29.82S
MONUMENT HILL  FAIR      63  30  29 S16G41    29.91S
TRINIDAD       FAIR      77  21  12 W10       29.85R
$$

COZ042>045-048>051-090-091-250200-
...NORTHEAST COLORADO...

CITY           SKY/WX    TMP DP  RH WIND       PRES   REMARKS
GREELEY ARPT   FAIR      66  45  45 N3        29.82R
AKRON          TSTM      58  48  69 NW29G53   29.80F
BURLINGTON     FAIR      75  59  57 SE17      29.77F
WRAY           NOT AVBL
STERLING       TSTM      59  50  72 SE13G24   29.80R
HOLYOKE        FAIR      73  61  64 E9        29.79F
FORT MORGAN    FAIR      65  46  49 E9        29.79F
$$

COZ086-089-092>099-250200-
...SOUTHEAST COLORADO...

CITY           SKY/WX    TMP DP  RH WIND       PRES   REMARKS
PUEBLO         FAIR      83  20   9 SW16G22   29.77S
LA JUNTA       FAIR      84  38  19 N8        29.72F
LAMAR          FAIR      87  27  11 S18G28    29.67F
SPRINGFIELD      N/A     80  29  15 S17G25    29.77F
$$




USA.gov is the U.S. government's official web portal to all federal, state and local government web resources and services.